Location: Milton Keynes
(52.0316°N, 0.7531°W)
Time: 04:19:01
(UTC+00:00)

OTV 5 (USA 277) - Pass Details

Date: 26 January 2019
Orbit: 342 x 346 km, 54.5° (Epoch: 17 February)

Event Time Altitude Azimuth Distance (km) Brightness Sun altitude
Rises 06:51:30 0° 214° (SW) 2,126 ? -9.3°
Reaches altitude 10° 06:53:42 10° 200° (SSW) 1,290 ? -9.0°
Maximum altitude 06:56:05 24° 143° (SE) 766 ? -8.7°
Drops below altitude 10° 06:58:30 10° 86° (E) 1,298 ? -8.3°
Sets 07:00:42 0° 72° (ENE) 2,142 ? -8.0°
